Alexandria, Egypt

8:07 PM EET on April 23, 2017 (GMT +0200)
Alexandria International

Weather History for HEAX - January, 2014

Change the Weather History Date:

Saturday, January 18, 2014

  Actual Average Record
Temperature  
Mean Temperature 62 °F -  
Max Temperature 69 °F 63 °F 69 °F (2014)
Min Temperature 55 °F 48 °F 42 °F (2005)
Degree Days  
Heating Degree Days 3    
Growing Degree Days 12 (Base 50)    
Moisture  
Dew Point 56 °F    
Average Humidity 78    
Maximum Humidity 94    
Minimum Humidity 48    
Precipitation  
Precipitation 0.00 in 0.05 in - ()
Sea Level Pressure  
Sea Level Pressure 30.24 in    
Wind  
Wind Speed 4 mph ()    
Max Wind Speed 8 mph    
Max Gust Speed -    
Visibility 6.1 miles    
Events      
Averages and records for this station are not official NWS values.
T = Trace of Precipitation, MM = Missing Value Source: Averaged Metar Reports

Daily Weather History Graph

Daily Weather History Graph

Search for Another Location

Airport or City:

Trip Planner

Search our weather history database for the weather conditions in past years. The results will help you decide how hot, cold, wet, or windy it might be!

Date:

Astronomy

Jan. 18, 2014 Rise Set
Actual Time 6:58 AM EET 5:22 PM EET
Civil Twilight 6:32 AM EET 5:48 PM EET
Nautical Twilight 6:03 AM EET 6:18 PM EET
Astronomical Twilight 5:33 AM EET 6:47 PM EET
Moon 7:34 PM EET (1/18) 7:58 AM EET (1/18)
Length of Visible Light 11h 16m
Length of Day
10h 23m
Waning Gibbous, 96% of the Moon is Illuminated
Jan 18
Waning Gibbous
Jan 24
Last Quarter
Jan 30
New
Feb 6
First Quarter
Feb 15
Full

Hourly Weather History & Observations

Time (EET) Temp. Dew Point Humidity Pressure Visibility Wind Dir Wind Speed Gust Speed Precip Events Conditions
12:00 AM 60.8 °F 55.4 °F 82% 30.21 in 6.2 mi North 4.6 mph - N/A   Scattered Clouds
1:00 AM 60.8 °F 53.6 °F 77% 30.21 in 6.2 mi North 4.6 mph - N/A   Scattered Clouds
2:00 AM 62 °F 55 °F 73% 30.23 in 6 mi North 5.8 mph - -   Partly Cloudy
2:00 AM 62.6 °F 55.4 °F 77% 30.21 in 6.2 mi North 5.8 mph - N/A   Scattered Clouds
3:00 AM 62.6 °F 55.4 °F 77% 30.21 in 6.2 mi North 5.8 mph - N/A   Partly Cloudy
4:00 AM 62.6 °F 55.4 °F 77% 30.21 in 6.2 mi North 8.1 mph - N/A   Partly Cloudy
5:00 AM 61 °F 56 °F 77% 30.22 in 6 mi North 3.5 mph - -   Partly Cloudy
5:00 AM 60.8 °F 55.4 °F 82% 30.21 in 6.2 mi North 3.5 mph - N/A   Partly Cloudy
6:00 AM 60.8 °F 57.2 °F 88% 30.21 in 6.2 mi East 3.5 mph - N/A   Partly Cloudy
7:00 AM 55.4 °F 53.6 °F 94% 30.24 in 6.2 mi Calm Calm - N/A   Scattered Clouds
8:00 AM 58 °F 53 °F 78% 30.26 in 6 mi Calm Calm - -   Partly Cloudy
8:00 AM 57.2 °F 53.6 °F 88% 30.24 in 6.2 mi Calm Calm - N/A   Scattered Clouds
9:00 AM 60.8 °F 55.4 °F 82% 30.27 in 6.2 mi East 2.3 mph - N/A   Partly Cloudy
10:00 AM 64.4 °F 57.2 °F 77% 30.30 in 6.2 mi East 4.6 mph - N/A   Partly Cloudy
11:00 AM 66 °F 56 °F 63% 30.30 in 6 mi East 3.5 mph - -   Partly Cloudy
11:00 AM 66.2 °F 57.2 °F 73% 30.30 in 6.2 mi East 3.5 mph - N/A   Scattered Clouds
12:00 PM 68.0 °F 55.4 °F 64% 30.27 in 6.2 mi NE 3.5 mph - N/A   Scattered Clouds
1:00 PM 68.0 °F 55.4 °F 64% 30.21 in 6.2 mi NE 3.5 mph - N/A   Scattered Clouds
2:00 PM 70 °F 55 °F 48% 30.22 in 6 mi ENE 4.6 mph - -   Partly Cloudy
2:00 PM 69.8 °F 55.4 °F 60% 30.21 in 6.2 mi ENE 4.6 mph - N/A   Scattered Clouds
3:00 PM 68.0 °F 57.2 °F 68% 30.21 in 6.2 mi ENE 5.8 mph - N/A   Scattered Clouds
4:00 PM 66.2 °F 57.2 °F 73% 30.21 in 6.2 mi NNE 6.9 mph - N/A   Scattered Clouds
5:00 PM 64.4 °F 55.4 °F 73% 30.21 in 6.2 mi NE 4.6 mph - N/A   Scattered Clouds
6:00 PM 60.8 °F 55.4 °F 82% 30.24 in - NE 2.3 mph - N/A   Clear
7:00 PM 60.8 °F 55.4 °F 82% 30.27 in - NE 2.3 mph - N/A   Clear
8:00 PM 60 °F 56 °F 83% 30.27 in 6 mi NE 3.5 mph - -  
8:00 PM 60.8 °F 57.2 °F 88% 30.27 in - NE 3.5 mph - N/A   Clear
9:00 PM 59.0 °F 57.2 °F 94% 30.27 in - NE 2.3 mph - N/A   Clear
10:00 PM 59.0 °F 55.4 °F 88% 30.27 in - NE 2.3 mph - N/A   Clear
11:00 PM 59 °F 55 °F 84% 30.29 in 6 mi East 2.3 mph - -  
11:00 PM 59.0 °F 55.4 °F 88% 30.27 in - East 2.3 mph - N/A   Clear